Погода в Артемьевской

Россия / Вологодская область     60°44′30″N   41°36′51″E
темп.,
°C
ветер,
м/с
пор.,
м/с
влажн.,
%
обл.,
%
осадки,
мм/ч
давл.,
гПа
погр.,
м
14 апреля, ср
ср1400:00+9ююз31095100 0.0 1021248
03:00+7ююз3995100 0.1 1020185
06:00+8ююз311886 0.1 1019249
09:00+12ююз4137449 0.1 1017427
12:00+16ююз5146426 0.0 10161244
15:00+17ююз514635 0.0 10151901
18:00+14юз51175100 0.8 1015931
21:00+7ссз4792100 1.1 1018389
15 апреля, чт
чт1500:00+5с4791100 1.3 1020615
03:00+4с278599 1.4 1022669
06:00+3с378993 0.0 1023544
09:00+4с4668100 0.0 1025830
12:00+6с4651100 0.0 10271166
15:00+7с464345 0.0 10271497
18:00+6с47520 0.0 1029862
21:00+1ссв28750 0.0 1031180
16 апреля, пт
пт1600:00−1ссв27805 0.0 1032161
03:00−1св25805 0.0 1033117
06:00−1св14675 0.0 1033143
09:00+4ссв22365 0.0 1033546
12:00+7с23356 0.0 1033985
15:00+9ссз233734 0.0 10321182
18:00+7ссз24505 0.0 1032169
21:00+3ссз22725 0.0 103316
17 апреля, сб
сб1700:00+2ссз22815 0.0 103431
03:00+1ссз26852 0.0 1034109
06:00+1ссз288671 0.0 1035200
09:00+6с47645 0.0 1035753
12:00+9с464924 0.0 10351265
15:00+10с46445 0.0 10341473
18:00+9с36535 0.0 1034555
21:00+4ссз22735 0.0 103519
18 апреля, вс
вс1800:00+3сз22805 0.0 103536
03:00+2сз22860 0.0 103531
06:00+2ссз12840 0.0 103643
09:00+8сз12600 0.0 1035517
12:00+11ссз34435 0.0 10341605
15:00+12ссз233986 0.0 10332039
18:00+11ссз234968 0.0 103394
21:00+6ссв11675 0.0 103410